Location: Newark
(42.8481°N, 0.4872°E)
Time: 08:45:23
(UTC+00:00)

Vanguard 2 - Pass Details

Date: 30 October 2020
Orbit: 554 x 2937 km, 32.9° (Epoch: 26 November)

Event Time Altitude Azimuth Distance (km) Brightness Sun altitude
Rises 20:40:53 0° 254° (WSW) 5,414 12.4 -41.8°
Reaches altitude 10° 20:44:04 10° 251° (WSW) 4,684 11.9 -42.4°
Enters shadow 20:56:22 58° 196° (SSW) 3,041 10.2 -44.4°
Maximum altitude 20:57:57 59° 177° (S) 3,059 - -44.7°
Drops below altitude 10° 21:15:19 10° 104° (ESE) 5,721 - -47.5°
Sets 21:19:41 0° 101° (ESE) 6,635 - -48.2°
